MDT,Max TemperatureF,Mean TemperatureF,Min TemperatureF,Max Dew PointF,MeanDew PointF,Min DewpointF,Max Humidity, Mean Humidity, Min Humidity, Max Sea Level PressureIn, Mean Sea Level PressureIn, Min Sea Level PressureIn, Max VisibilityMiles, Mean VisibilityMiles, Min VisibilityMiles, Max Wind SpeedMPH, Mean Wind SpeedMPH, Max Gust SpeedMPH,PrecipitationIn, CloudCover, Events, WindDirDegrees
2013-9-1,78,64,51,55,52,48,94,66,36,30.14,30.08,30.02,10,10,10,9,7,,0.00,1,,46
2013-9-2,93,73,53,54,49,39,88,49,15,30.03,29.96,29.89,10,10,8,10,6,,0.00,0,,117
2013-9-3,96,82,69,59,53,45,64,42,19,30.04,29.96,29.92,10,10,10,14,6,18,0.00,0,,133
2013-9-4,89,76,64,63,57,46,73,54,36,30.13,30.08,30.04,10,10,8,17,8,20,0.00,1,,72
2013-9-5,95,80,66,64,60,55,83,52,28,30.09,30.01,29.92,10,10,9,13,6,16,0.00,0,,116
2013-9-6,91,80,69,66,62,57,88,56,31,30.04,29.97,29.92,10,10,7,25,7,37,0.50,0,Thunderstorm,319
2013-9-7,80,71,62,66,63,57,88,76,54,30.06,30.03,29.99,10,10,9,22,9,26,0.00,1,,57
2013-9-8,73,66,60,64,60,54,88,81,69,30.04,29.93,29.82,10,10,6,25,7,37,0.00,4,,25
2013-9-9,77,66,55,59,53,48,94,69,36,29.94,29.86,29.77,10,10,10,22,12,30,0.01,2,,279
2013-9-10,82,66,50,55,51,48,94,63,30,30.10,30.03,29.94,10,10,10,16,8,24,0.00,0,,272
2013-9-11,82,68,53,52,46,39,88,52,26,30.31,30.20,30.10,10,10,10,15,6,21,0.00,1,,15
2013-9-12,80,63,46,48,44,39,76,47,26,30.35,30.26,30.15,10,10,8,12,7,,0.00,0,,100
2013-9-13,86,70,55,57,52,46,72,51,31,30.14,29.95,29.80,10,10,10,21,9,28,0.00,0,,159
2013-9-14,77,67,55,63,57,46,100,72,50,30.13,29.89,29.78,10,10,8,24,8,30,0.13,2,,35
2013-9-15,69,58,46,50,45,39,93,65,38,30.28,30.22,30.14,10,10,10,14,7,21,0.00,0,,95
2013-9-16,80,64,48,54,51,45,87,61,39,30.15,29.95,29.79,10,10,10,23,11,30,0.00,0,,158
2013-9-17,87,69,51,57,54,48,94,62,31,29.79,29.71,29.59,10,10,7,51,9,67,0.29,1,Thunderstorm,182
2013-9-18,71,62,53,59,53,43,100,79,52,29.84,29.68,29.59,10,10,10,21,9,29,0.00,3,,242
2013-9-19,55,48,42,45,40,37,93,70,54,30.10,30.02,29.84,10,10,9,22,14,31,0.00,5,,292
2013-9-20,68,52,35,45,37,32,93,63,30,30.10,30.03,29.89,10,10,8,9,5,,0.00,0,,157
2013-9-21,80,61,42,45,40,34,76,50,26,29.89,29.73,29.58,10,10,10,14,6,20,0.00,0,,124
2013-9-22,73,60,48,52,47,43,93,65,38,29.58,29.52,29.49,10,10,10,15,5,17,0.00,0,,3
2013-9-23,71,60,46,50,42,30,82,57,28,29.87,29.70,29.54,10,10,10,17,10,22,0.01,2,,299
2013-9-24,73,55,37,43,35,28,81,45,23,29.96,29.84,29.60,10,10,10,14,6,21,0.00,1,,150
2013-9-25,66,57,48,46,44,39,93,67,40,29.67,29.63,29.58,10,10,10,21,11,28,0.03,2,,298
2013-9-26,51,46,42,46,42,39,93,80,62,29.97,29.78,29.62,10,10,10,20,10,26,0.00,7,,274
2013-9-27,53,45,37,41,34,28,93,66,41,29.97,29.90,29.84,10,10,10,13,7,16,0.00,2,,275
2013-9-28,66,50,33,39,34,30,93,61,28,29.84,29.80,29.75,10,10,10,26,10,37,0.00,2,,223
2013-9-29,77,62,46,39,37,32,66,46,24,29.75,29.62,29.52,10,10,10,28,12,36,0.00,1,,225
2013-9-30,73,60,46,50,39,32,82,59,31,29.73,29.59,29.47,10,10,3,36,11,50,0.01,3,,222